Location: *
(51.5000°N, 0.1100°W)
Time: 00:36:11
(UTC+00:00)

MSX - Pass Details

Date: 07 August 2024
Orbit: 895 x 904 km, 99.0° (Epoch: 09 September)

Event Time Altitude Azimuth Distance (km) Brightness Sun altitude
Rises 01:53:44 0° 16° (NNE) 3,544 8.5 -18.2°
Reaches altitude 10° 01:56:10 10° 18° (NNE) 2,599 7.5 -18.1°
Maximum altitude 02:01:58 74° 104° (ESE) 943 3.9 -17.6°
Enters shadow 02:05:28 25° 186° (S) 1,737 4.8 -17.4°
